Current Version              Previous Version:    01  02  03  04  05  06  07  08  09  10  11  12  13  14  15  16  17  18  19  20  21  22  23  24  25  26  27  28  29  30  
   31  32  33  34  35  36  37  38  39  40  41  42  43  44  45  46  47  48  49  50  51  52  53  54  55  56  57  58  59  60  

[Printable]
617
ASUS44 KFWD 211203
RWRTX
NORTH TEXAS HOURLY WEATHER ROUNDUP
NATIONAL WEATHER SERVICE FORT WORTH TX
700 AM CDT TUE OCT 21 2014

NOTE: "FAIR" INDICATES FEW OR NO CLOUDS BELOW 12,000 FEET WITH NO
SIGNIFICANT WEATHER AND/OR OBSTRUCTIONS TO VISIBILITY.

TXZ118-119-211300-
DALLAS/FORT WORTH METROPLEX

CITY           SKY/WX    TMP DP  RH WIND       PRES   REMARKS
DFW AIRPORT    PTCLDY    60  56  86 CALM      30.07R
6HR MIN TEMP:  59; 6HR MAX TEMP:  67;

DALLAS LOVE    PTCLDY    59  56  89 NE3       30.07R
6HR MIN TEMP:  59; 6HR MAX TEMP:  67;

FTW MEACHAM    CLEAR     61  57  87 CALM      30.07R
6HR MIN TEMP:  60; 6HR MAX TEMP:  68;

DAL-EXECUTIVE  CLEAR     59  56  89 CALM      30.07R
6HR MIN TEMP:  55; 6HR MAX TEMP:  65;

FTW-ALLIANCE   PTCLDY    55  55 100 CALM      30.07R
6HR MIN TEMP:  53; 6HR MAX TEMP:  64;

FTW-NAS-JRB    PTCLDY    63  57  81 CALM      30.11R
6HR MIN TEMP:  63; 6HR MAX TEMP:  70;

FTW-SPINKS     CLEAR     54  54 100 CALM      30.09R
ARLINGTON      CLEAR     54  51  90 CALM      30.07R FOG
6HR MIN TEMP:  54; 6HR MAX TEMP:  62;

GRAND PRAIRIE  CLEAR     61  57  88 MISG      30.08S
ADDISON        PTCLDY    61  57  88 CALM      30.08R
MESQUITE       CLEAR     54  52  94 CALM      30.07R
LANCASTER      CLEAR     53  50  90 CALM      30.08R
6HR MIN TEMP:  52; 6HR MAX TEMP:  59;

$$

TXZ091>094-102>105-117-120-121-131>134-211300-
NORTH CENTRAL TEXAS

CITY           SKY/WX    TMP DP  RH WIND       PRES   REMARKS
SHRMAN/DENISON CLEAR     60  58  93 CALM      30.08S
6HR MIN TEMP:  59; 6HR MAX TEMP:  65;

GAINESVILLE    CLEAR     56  55  97 MISG      30.10R FOG
6HR MIN TEMP:  56; 6HR MAX TEMP:  64;

BOWIE          CLEAR     56  56  99 CALM      30.08R FOG
6HR MIN TEMP:  56; 6HR MAX TEMP:  63;

BRIDGEPORT     CLEAR     54  54 100 CALM      30.10R
6HR MIN TEMP:  54; 6HR MAX TEMP:  67;

DECATUR        CLEAR     63  57  83 CALM      30.08S
6HR MIN TEMP:  61; 6HR MAX TEMP:  67;

DENTON         CLEAR     55  53  93 CALM      30.08R FOG
6HR MIN TEMP:  54; 6HR MAX TEMP:  64;

MCKINNEY       CLEAR     57  55  93 CALM      30.07S
6HR MIN TEMP:  56; 6HR MAX TEMP:  62;

GREENVILLE     CLEAR     54  52  94 CALM      30.07S
ROCKWALL       CLEAR     57  56  95 CALM      30.07R
6HR MIN TEMP:  56; 6HR MAX TEMP:  65;

TERRELL        CLEAR     56  52  86 CALM      30.08R
6HR MIN TEMP:  55; 6HR MAX TEMP:  62;

WAXAHACHIE     CLEAR     57  57 100 CALM      30.09R
6HR MIN TEMP:  56; 6HR MAX TEMP:  61;

CLEBURNE       CLEAR     57  57 100 CALM      30.09R FOG
GRANBURY       CLEAR     56  54  91 CALM      30.09R FOG
6HR MIN TEMP:  56; 6HR MAX TEMP:  66;

$$

TXZ083>090-098>101-113>116-127>130-139>142-154-155-211300-
WESTERN NORTH TEXAS

CITY           SKY/WX    TMP DP  RH WIND       PRES   REMARKS
WICHITA FALLS  CLEAR     59  56  89 CALM      30.06S
6HR MIN TEMP:  58; 6HR MAX TEMP:  65;

WF-KICKAPOO    CLEAR     59  56  89 W5        30.08R
6HR MIN TEMP:  59; 6HR MAX TEMP:  64;

VERNON         CLEAR     61  55  82 CALM      30.08R
ABILENE        CLEAR     61  54  77 CALM      30.09R
6HR MIN TEMP:  60; 6HR MAX TEMP:  63;

ABILENE-DYESS  CLEAR     56  52  86 S1        30.08R
6HR MIN TEMP:  55; 6HR MAX TEMP:  64;

BRECKENRIDGE   CLEAR     59  56  91 SE5       30.08R
6HR MIN TEMP:  59; 6HR MAX TEMP:  66;

MINERAL WELLS  CLEAR     57  55  93 CALM      30.07R FOG
6HR MIN TEMP:  57; 6HR MAX TEMP:  64;

STEPHENVILLE   CLEAR     57  54  88 CALM      30.11R
6HR MIN TEMP:  56; 6HR MAX TEMP:  63;

COMANCHE       CLEAR     57  57 100 CALM      30.09R
6HR MIN TEMP:  57; 6HR MAX TEMP:  63;

COLEMAN        CLEAR     55  54  96 CALM      30.09R
6HR MIN TEMP:  55; 6HR MAX TEMP:  64;

BRADY          CLEAR     55  55 100 CALM      30.08R
$$

TXZ143>147-156>162-174-175-211300-
CENTRAL TEXAS

CITY           SKY/WX    TMP DP  RH WIND       PRES   REMARKS
WACO           CLEAR     56  55  97 CALM      30.07R FOG
6HR MIN TEMP:  54; 6HR MAX TEMP:  60;

WACO-TSTC      CLEAR     54  54 100 CALM      30.08  FOG
WACO-MCGREGOR  CLEAR     54  48  82 CALM      30.09R
6HR MIN TEMP:  54; 6HR MAX TEMP:  63;

HILLSBORO      CLEAR     58  54  89 CALM      30.08R
6HR MIN TEMP:  56; 6HR MAX TEMP:  64;

CORSICANA      FOG       55  53  93 W3        30.08R VSB 1/4
6HR MIN TEMP:  54; 6HR MAX TEMP:  64;

MEXIA          CLEAR     58  57  96 CALM      30.07R
6HR MIN TEMP:  57; 6HR MAX TEMP:  62;

HEARNE         CLEAR     53  53  99 CALM      30.07R FOG
6HR MIN TEMP:  53; 6HR MAX TEMP:  65;

CAMERON        CLEAR     57  56  98 CALM      30.06S FOG
6HR MIN TEMP:  57; 6HR MAX TEMP:  65;

TEMPLE         CLEAR     55  50  82 N5        30.06S
6HR MIN TEMP:  55; 6HR MAX TEMP:  64;

KILLEEN        NOT AVBL
KILLEEN-SKYLRK CLEAR     57  52  82 CALM      30.06R
6HR MIN TEMP:  55; 6HR MAX TEMP:  63;

FORT HOOD      CLEAR     60  57  89 CALM      30.07R
6HR MIN TEMP:  59; 6HR MAX TEMP:  67;

GATESVILLE     CLEAR     55  54  94 CALM      30.09S
HAMILTON       CLEAR     58  58 100 CALM      30.09R
6HR MIN TEMP:  58; 6HR MAX TEMP:  63;

LAMPASAS       FOG       55  55  97 CALM      30.07R VSB 3/4
6HR MIN TEMP:  55; 6HR MAX TEMP:  60;

$$

TXZ095>097-106>112-122>126-135>138-148>153-164>167-211300-
EAST TEXAS

CITY           SKY/WX    TMP DP  RH WIND       PRES   REMARKS
PARIS          CLEAR     57  52  82 CALM      30.08S
6HR MIN TEMP:  57; 6HR MAX TEMP:  63;

SULPHUR SPRNGS   N/A     58  56  94 CALM      30.09R
6HR MIN TEMP:  58; 6HR MAX TEMP:  63;

MOUNT PLEASANT CLEAR     54  54 100 CALM      30.09R
6HR MIN TEMP:  54; 6HR MAX TEMP:  60;

MINEOLA        CLEAR     54  54 100 CALM      30.08R
TYLER          CLEAR     57  53  86 CALM      30.06R
6HR MIN TEMP:  56; 6HR MAX TEMP:  62;

LONGVIEW       CLEAR     55  53  93 CALM      30.06R
6HR MIN TEMP:  54; 6HR MAX TEMP:  58;

MARSHALL       CLEAR     56  53  92 CALM      30.09S
6HR MIN TEMP:  56; 6HR MAX TEMP:  58;

ATHENS         CLEAR     52  50  93 CALM      30.07R
JACKSONVILLE   CLEAR     58  55  88 CALM      30.08R
HENDERSON      CLEAR     53  53  99 CALM      30.08R
6HR MIN TEMP:  52; 6HR MAX TEMP:  55;

NACOGDOCHES    CLEAR     50  48  93 CALM      30.07R
6HR MIN TEMP:  50; 6HR MAX TEMP:  52;

LUFKIN         CLEAR     55  50  83 CALM      30.06R
6HR MIN TEMP:  53; 6HR MAX TEMP:  58;

$$

SUPPLEMENTAL OBSERVATIONS (CENTRAL)

CITY           SKY/WX    TMP DP  RH WIND       PRES   REMARKS
$$

SUPPLEMENTAL OBSERVATIONS (WEST)

CITY           SKY/WX    TMP DP  RH WIND       PRES   REMARKS
$$

SUPPLEMENTAL OBSERVATIONS (EAST)

CITY           SKY/WX    TMP DP  RH WIND       PRES   REMARKS
$$

SUPPLEMENTAL OBSERVATIONS ARE A COLLECTION OF AUTOMATED INSTRUMENTS
THAT ARE MAINTAINED BY A VARIETY OF FEDERAL AND STATE AGENCIES.
CERTAIN ELEMENTS...SUCH AS HUMIDITY VALUES AND SUSTAINED WIND
SPEEDS...MAY BE APPROXIMATED.